Location: Garshuizen
(53.3675°N, 6.7248°E)
Time: 11:25:10
(UTC+00:00)

PSLV R/B - Pass Details

Date: 15 May 2026
Orbit: 585 x 678 km, 97.9° (Epoch: 6 June)

Event Time Altitude Azimuth Distance (km) Brightness Sun altitude
Rises 23:09:04 0° 15° (NNE) 2,870 8.3 -17.4°
Reaches altitude 10° 23:11:14 10° 16° (NNE) 1,974 7.2 -17.5°
Maximum altitude 23:15:32 80° 105° (ESE) 637 3.5 -17.5°
Enters shadow 23:17:19 35° 187° (S) 1,007 4.1 -17.5°
